{"data":{"norad_id":68280,"intl_designator":"2026-055U","name":"STARLINK-37070","alt_names":[],"object_type":"PAYLOAD","status":"ACTIVE","operator":null,"country":"US","launch_date":"2026-03-19","launch_site_code":"AFETR","launch_vehicle":null,"mission":null,"orbit_class":"UNKNOWN","rcs_meters":null,"size_class":null,"mass_kg":null,"dimensions":null,"purposes":["comms"],"wikipedia_slug":null,"has_3d_model":false,"image_url":null,"decayed_at":null,"tle_current":{"epoch":"2026-05-25T04:43:33.987360Z","epoch_age_seconds":61080,"freshness":"FRESH","line1":"1 68280U 26055U   26145.19692115  .00023138  00000+0  69374-3 0  9992","line2":"2 68280  53.1591 322.5153 0001283  90.8986 269.2164 15.34403237 11661","mean_motion":15.34403237,"eccentricity":0.0001283,"inclination_deg":53.1591,"raan_deg":322.5153,"arg_perigee_deg":90.8986,"mean_anomaly_deg":269.2164,"bstar":0.00069374,"rev_number":1166,"period_min":93.847560098702,"perigee_km":461.81594060941,"apogee_km":463.57129774629,"semimajor_km":6840.8306191779,"source":"CELESTRAK","updated_at":"2026-05-25T13:38:21.893944Z"}}}